EHI
0 0 0 0 0 0 0 0 0 0 0 0 0 0 1 2 2 2 3 5 5 5 4 4 6 9 12 15 17 16 12 9 8 6 4 4 4 2 1 0 0 0 0 0
0 0 0 0 0 0 0 0 0 0 0 0 0 0 1 3 4 3 3 4 5 5 4 3 5 10 14 15 16 16 14 11 9 7 5 5 4 2 1 0 0 0 0 0
0 0 0 0 0 0 0 0 0 0 0 0 0 0 0 2 3 3 3 5 6 5 4 3 4 9 13 15 16 16 15 13 11 8 7 6 6 4 1 0 0 1 0 0
0 0 0 0 0 0 0 0 0 0 0 0 0 0 0 1 2 2 3 5 7 7 5 5 6 8 11 14 15 16 14 12 10 10 10 10 9 6 2 0 0 0 0 0
0 0 0 0 0 0 0 0 0 0 0 0 0 0 0 0 1 3 5 6 8 8 8 9 9 9 11 13 15 15 13 11 10 11 13 13 12 8 5 2 1 0 0 0
0 0 0 0 0 0 0 0 0 0 0 0 0 0 0 0 1 4 6 7 7 7 9 11 12 11 13 14 14 13 13 11 10 11 13 13 12 10 8 5 3 1 0 0
0 0 0 0 0 0 0 0 0 0 0 0 0 0 0 0 1 3 6 6 5 5 8 11 12 13 15 16 14 13 13 13 12 12 11 11 12 12 9 7 5 2 0 0
0 0 0 0 0 0 0 0 0 0 0 0 0 0 0 1 2 4 5 5 4 5 9 11 11 13 16 17 15 13 14 15 14 13 11 10 11 11 8 6 5 3 1 0
0 0 0 0 0 0 0 0 0 0 0 0 0 0 0 1 3 5 6 6 6 7 9 11 11 12 14 16 15 13 14 15 13 12 11 10 10 9 8 6 5 4 2 1
0 0 0 0 0 0 0 0 0 0 0 0 0 0 0 1 4 6 7 8 9 9 9 10 10 10 11 14 13 10 11 12 11 10 11 11 9 8 6 4 4 5 4 2
0 0 0 0 0 0 0 0 0 0 0 0 0 0 0 1 4 7 8 10 11 10 9 8 8 8 9 11 10 8 8 11 11 10 11 10 9 7 4 2 4 5 5 4
0 0 0 0 0 0 0 0 0 0 0 0 0 0 0 3 6 8 10 12 11 9 7 7 6 7 8 9 9 8 9 11 11 9 9 9 8 7 4 1 2 4 5 4
0 0 0 0 0 0 0 0 0 0 0 0 0 0 2 5 7 9 11 11 9 8 6 5 5 6 8 10 10 11 12 13 11 8 8 8 7 7 5 2 2 3 3 4
0 0 0 0 0 0 0 0 0 0 0 0 0 0 3 6 8 9 10 9 8 7 6 5 4 4 5 9 12 14 14 14 13 11 11 10 9 7 6 4 3 3 3 3
0 0 0 0 0 0 0 0 0 0 0 0 0 0 2 4 6 8 8 7 6 7 7 6 4 2 2 6 12 15 15 15 15 15 14 14 12 9 7 6 4 3 3 2
0 0 0 0 0 0 0 0 0 0 0 0 1 1 1 3 5 6 7 6 6 6 7 5 3 2 2 5 11 15 15 15 15 15 14 14 13 11 8 5 4 3 2 2
0 0 0 0 0 0 0 0 0 0 0 1 2 2 3 3 4 7 9 8 7 7 5 3 2 2 4 7 11 14 14 13 13 12 13 13 13 11 9 6 4 4 3 3
0 0 0 0 0 0 0 0 0 0 0 2 4 5 5 5 6 8 10 10 9 7 5 3 3 3 5 8 11 13 13 11 11 11 11 12 13 13 11 9 6 6 6 5
0 0 0 0 0 0 0 0 0 0 0 2 4 5 5 6 6 8 10 11 10 8 7 6 5 5 6 8 11 13 14 13 13 12 11 12 13 14 13 11 10 10 8 7
0 0 0 0 0 0 0 0 0 0 0 2 4 4 5 5 5 7 9 10 10 9 8 7 7 7 7 8 11 14 16 17 16 14 12 12 13 14 14 13 12 12 10 9
0 0 0 0 0 0 0 0 0 0 1 2 3 3 4 4 4 4 5 6 8 8 6 6 7 8 7 8 11 15 17 17 16 14 11 11 13 14 14 14 13 12 12 11
0 0 0 0 0 0 0 0 0 0 2 3 2 2 3 4 4 4 4 4 5 5 4 4 6 7 7 8 11 14 15 14 14 13 11 11 13 13 13 13 13 12 11 11
0 0 0 0 0 0 0 0 0 0 2 3 2 1 4 5 5 5 4 3 3 3 3 3 4 6 6 6 8 12 12 11 11 12 11 10 11 11 11 12 13 11 10 10
0 0 1 1 0 0 0 0 0 0 2 2 1 2 4 5 4 4 3 1 1 3 3 3 3 5 5 5 7 9 10 9 10 11 10 8 8 8 7 10 12 11 10 10
0 1 2 2 1 0 0 0 0 0 1 1 1 2 3 3 3 3 1 0 1 2 3 3 3 4 5 5 6 7 7 7 8 9 7 5 6 6 5 7 8 8 9 9
0 1 2 3 2 1 0 0 0 0 0 0 1 2 2 2 3 2 1 0 0 1 3 3 3 3 4 5 6 6 5 5 7 7 5 4 6 6 4 4 5 6 7 8
Wind_Speed
2 3 3 6 6 4 4 3 3 3 2 2 2 3 2 4 4 5 5 6 6 7 5 4 4 5 5 5 5 5 5 5 4 3 2 2 1 1 0 0 0 1 1 2
3 3 7 3 3 2 3 2 2 2 0 2 1 2 2 4 6 6 6 6 6 4 3 3 4 5 6 6 7 6 6 6 5 4 3 2 2 1 1 0 1 1 1 2
5 6 3 2 2 2 2 4 4 3 1 3 2 3 2 2 2 3 3 4 4 6 6 5 5 5 6 6 7 7 7 6 5 5 3 2 2 2 1 1 0 1 1 2
4 4 2 1 2 3 3 3 4 3 3 1 1 2 5 2 3 4 5 5 5 5 6 5 6 6 7 7 6 5 6 5 5 6 5 5 3 2 2 1 1 1 1 2
5 3 2 3 5 5 4 2 3 3 3 1 2 1 6 1 3 6 6 7 6 6 6 6 8 8 7 6 5 5 5 5 5 5 7 6 4 2 1 1 2 1 1 1
5 3 4 5 2 4 4 5 6 6 5 1 2 2 6 3 5 4 4 5 6 6 6 5 5 5 5 5 5 5 5 4 4 5 6 6 6 5 4 3 2 1 1 1
4 3 2 3 2 1 4 6 4 4 3 5 2 2 8 6 5 5 5 5 5 5 5 5 5 5 5 5 5 5 6 5 5 6 6 6 6 7 6 5 3 3 1 1
2 5 4 3 6 6 4 8 7 5 5 4 1 5 7 4 4 3 3 3 3 4 4 5 5 5 5 6 6 6 6 5 5 6 6 5 6 5 4 5 4 4 3 2
6 6 4 2 2 8 5 3 5 7 2 1 4 6 8 2 2 1 1 1 2 3 4 4 4 5 5 5 5 6 6 5 5 6 5 4 4 4 3 3 3 3 2 2
8 4 4 2 4 3 5 8 6 6 6 3 4 4 5 5 5 3 2 2 3 2 2 2 3 4 5 5 5 5 5 6 5 5 5 4 4 4 4 4 3 3 2 2
5 5 3 2 2 3 3 4 5 5 5 6 4 8 6 8 7 6 6 4 4 4 3 3 2 3 4 3 4 4 4 4 4 4 4 4 4 4 4 4 3 3 2 3
4 6 2 4 3 2 3 5 7 6 4 4 4 8 4 5 5 5 4 3 3 3 3 2 2 2 3 3 3 4 4 4 4 5 4 4 4 4 4 3 3 3 3 3
5 6 2 5 4 2 2 2 4 5 5 5 4 8 2 0 2 2 3 2 2 2 3 2 2 2 2 3 3 4 4 5 4 5 5 4 4 4 4 3 3 3 3 2
6 5 6 9 7 3 1 2 4 5 5 5 7 7 5 2 2 2 3 3 2 2 3 2 2 1 1 2 2 3 4 4 4 4 5 4 4 4 4 4 3 3 3 3
5 4 2 3 3 3 3 4 5 5 7 8 7 7 7 5 5 4 3 3 3 3 3 2 2 1 1 1 1 1 1 2 3 4 4 4 4 3 3 3 3 3 3 3
4 4 2 1 1 1 2 2 4 4 4 4 3 5 4 1 2 3 3 4 3 3 3 2 2 1 1 1 1 2 2 2 4 5 4 3 3 3 3 3 3 3 2 2
2 4 3 2 3 2 2 4 4 3 3 5 6 6 1 2 3 4 3 4 4 3 2 2 2 2 1 1 2 2 2 2 3 4 3 3 3 3 2 3 3 3 3 2
5 4 3 2 2 3 6 1 2 3 1 1 1 1 2 2 2 1 1 2 2 1 2 1 1 1 1 1 2 2 2 3 3 3 3 3 3 2 2 2 3 3 2 3
4 6 4 3 3 3 4 1 1 2 1 1 1 2 3 3 5 4 3 2 2 1 1 1 1 1 2 2 2 3 3 3 2 2 1 2 2 2 2 3 3 3 2 2
5 4 5 4 4 5 5 3 2 3 1 1 2 3 3 3 3 2 2 3 3 2 2 2 2 3 3 1 2 4 2 2 1 1 1 2 2 3 3 3 3 2 2 2
4 4 3 3 3 5 4 5 1 4 5 2 2 3 4 2 3 2 0 2 2 2 2 3 3 3 1 1 3 3 2 1 2 1 1 1 2 3 3 2 2 2 2 2
2 2 2 3 2 5 4 2 2 4 2 1 2 2 3 2 2 2 2 2 2 3 3 3 3 2 2 2 3 2 1 1 1 1 0 0 1 1 2 2 2 2 2 2
2 4 4 5 5 4 2 1 2 1 1 1 2 2 4 3 2 2 1 1 2 2 2 2 2 2 2 2 2 1 1 1 1 1 0 0 0 0 1 2 3 2 2 2
2 1 2 1 3 3 3 2 2 1 0 0 2 3 4 3 2 1 1 1 2 1 1 1 2 2 1 1 0 1 1 0 1 0 1 0 1 1 1 2 2 3 3 3
3 0 1 1 3 4 4 3 3 2 2 2 2 2 4 4 2 1 1 0 0 0 0 1 1 1 1 1 1 1 1 1 1 1 1 1 1 1 1 2 2 3 4 4
2 3 3 4 4 3 5 4 3 1 1 0 1 1 1 2 3 2 1 2 1 1 0 0 0 0 1 1 1 2 1 1 1 1 1 1 1 1 1 1 2 2 2 3
Wind_Direction
102 90 210 223 200 197 180 184 239 253 215 133 216 263 238 197 197 211 209 198 197 209 212 190 185 178 163 165 175 182 178 175 156 149 156 160 186 205 201 187 110 117 112 109
49 256 235 219 187 177 180 182 233 295 200 146 220 288 266 199 207 210 213 214 208 204 203 197 183 179 178 184 186 188 189 181 177 177 168 161 155 167 190 244 63 93 103 105
192 237 200 155 162 158 216 192 204 197 51 44 65 329 295 264 226 217 217 219 214 203 205 203 198 190 185 192 193 196 194 184 182 171 136 111 84 66 59 19 12 39 110 119
227 244 178 159 215 169 251 223 180 159 110 305 112 268 284 262 256 227 222 222 220 219 211 210 206 199 197 202 195 188 182 177 178 166 160 160 161 173 194 183 169 67 92 114
239 218 171 207 222 175 204 113 109 109 120 74 18 184 282 301 259 246 229 220 218 216 210 211 208 204 202 195 184 184 175 176 173 170 172 167 161 162 148 125 115 83 62 91
238 235 195 202 183 150 135 69 58 53 69 16 246 183 274 240 229 245 236 222 217 213 211 212 210 189 189 184 175 172 170 184 178 175 173 171 164 158 151 150 149 139 105 76
311 301 235 157 112 61 102 93 42 4 9 252 249 204 249 251 231 223 228 228 214 202 200 196 190 185 188 184 182 177 176 184 180 177 179 181 176 171 173 174 171 166 167 181
208 281 242 185 175 175 172 145 158 191 217 268 293 236 254 257 253 228 205 216 212 200 198 200 195 186 190 192 186 180 178 183 180 180 182 180 180 179 175 173 173 178 183 195
184 247 277 231 180 142 142 175 158 131 142 253 276 283 299 268 278 233 181 183 228 218 207 205 194 183 185 188 186 182 177 175 178 180 173 173 176 166 161 162 166 172 180 185
162 221 280 300 71 45 137 142 107 125 151 228 276 268 250 252 246 241 218 209 225 216 199 199 198 189 187 185 179 171 175 176 176 171 172 171 168 160 155 150 156 167 174 165
145 164 299 15 155 186 114 111 115 119 150 161 232 263 229 218 218 211 215 211 207 194 184 185 191 180 176 166 164 166 171 168 168 172 171 169 166 163 156 161 172 174 174 175
144 129 216 259 264 201 165 163 148 152 198 174 186 261 274 220 212 200 210 208 186 173 161 155 145 126 143 155 162 169 171 173 179 175 167 173 162 153 160 172 175 171 172 180
136 117 95 338 332 1 99 146 146 129 124 155 178 260 302 260 201 192 183 176 143 147 141 124 108 114 138 161 173 176 177 179 176 164 164 164 167 169 177 183 180 174 175 183
118 112 161 193 213 197 211 196 157 137 152 192 220 245 280 266 220 202 173 159 138 129 128 112 97 122 150 154 172 180 185 182 169 158 160 170 181 185 186 189 188 187 180 181
103 125 195 225 233 202 207 212 186 186 189 187 222 226 247 230 205 191 171 152 136 134 136 140 151 155 136 141 160 150 157 156 155 154 163 177 178 177 173 182 189 187 190 195
73 127 120 315 301 218 224 230 195 195 193 198 206 248 250 213 156 154 167 163 166 177 172 164 160 156 162 174 176 154 154 153 149 157 169 172 164 170 182 189 190 186 194 195
87 128 122 238 295 40 262 230 190 182 196 180 205 231 190 154 176 176 176 179 189 190 180 175 172 173 183 193 163 154 176 161 152 157 163 162 163 174 194 196 190 199 198 193
134 113 124 142 90 212 241 249 153 145 150 174 220 232 179 172 132 94 136 163 167 161 157 169 158 139 119 109 105 118 122 124 140 153 166 162 157 179 195 196 210 211 201 201
142 134 122 128 166 263 292 329 110 154 264 9 156 102 83 106 67 24 25 78 120 135 144 146 139 120 80 90 107 100 92 102 119 150 176 177 175 179 191 209 221 216 201 208
65 91 114 131 161 218 248 297 298 123 269 312 141 145 137 100 93 277 341 51 70 77 89 85 83 82 70 50 99 111 117 120 155 205 213 204 193 192 205 217 215 209 195 206
31 45 103 153 203 254 288 303 47 134 246 272 175 164 149 150 191 206 101 61 82 89 90 87 83 81 81 90 106 110 114 205 239 242 198 195 211 211 208 203 192 183 187 183
163 138 167 141 180 259 325 42 134 218 260 173 151 133 132 126 111 113 100 73 71 71 70 82 84 61 46 83 102 102 240 270 323 74 103 202 232 228 195 176 184 181 179 189
185 187 188 188 209 252 307 251 277 204 168 187 155 126 127 117 106 98 97 79 69 74 70 84 100 68 30 51 122 165 289 352 59 80 85 226 263 227 194 188 191 188 187 199
288 112 132 275 281 300 316 331 351 6 299 174 135 132 127 130 129 96 72 43 43 56 107 113 110 97 17 342 328 245 275 105 118 198 288 280 229 246 225 210 202 199 202 206
253 136 95 281 291 321 333 336 329 9 43 75 86 113 137 133 132 134 114 353 161 148 138 134 137 142 246 290 295 293 286 127 148 229 264 282 268 243 242 237 226 222 223 213
221 180 172 229 232 223 274 300 318 8 352 117 99 56 82 139 163 171 205 226 209 183 143 101 163 237 269 277 282 287 280 168 174 259 281 278 271 266 258 257 296 296 249 242